When you browse on this site, cookies collect data to enhance your experience and personalize the content and advertising you see.
Visit our Privacy Policy to learn more. By continuing to use the site, you agree to this use of cookies and data.
  • în România
  • Lista ţărilor
  • Pe 7 zile
  • Temperatura apei
  • Meteo pe hartă
  • Widget-uri
  • user-avatar
    Intrare

    Meteo pe oră la Trzebiatów

    Astăzi, 16 Octombrie, Miercuri

    Timp Temperatura Precipitaţii Vânt Presiune Umiditate
    00:00 +14°C° 0 mm 1 m/s 753 mmHg 89%
    01:00 +14°C° 0 mm 1 m/s 753 mmHg 89%
    02:00 +14°C° 0 mm 1 m/s 753 mmHg 89%
    03:00 +14°C° 0 mm 1 m/s 752 mmHg 90%
    04:00 +13°C° 0 mm 1 m/s 752 mmHg 90%
    05:00 +13°C° 0 mm 1 m/s 752 mmHg 91%
    06:00 +13°C° 0 mm 2 m/s 752 mmHg 92%
    07:00 +13°C° 0 mm 2 m/s 752 mmHg 93%
    08:00 +13°C° 0 mm 3 m/s 752 mmHg 89%
    09:00 +14°C° 0 mm 3 m/s 752 mmHg 85%
    10:00 +15°C° 0 mm 4 m/s 752 mmHg 82%
    11:00 +15°C° 0 mm 4 m/s 752 mmHg 83%
    12:00 +15°C° 0 mm 4 m/s 752 mmHg 83%
    13:00 +16°C° 0 mm 5 m/s 753 mmHg 84%
    14:00 +15°C° 0.6 mm 5 m/s 753 mmHg 87%
    15:00 +14°C° 0.6 mm 6 m/s 753 mmHg 89%
    16:00 +12°C° 0.6 mm 7 m/s 753 mmHg 92%
    17:00 +12°C° 2.5 mm 7 m/s 753 mmHg 92%
    18:00 +12°C° 2.5 mm 8 m/s 754 mmHg 93%
    19:00 +12°C° 2.5 mm 8 m/s 754 mmHg 94%
    20:00 +12°C° 1.1 mm 9 m/s 754 mmHg 93%
    21:00 +12°C° 1.1 mm 9 m/s 755 mmHg 92%
    22:00 +12°C° 1.1 mm 9 m/s 755 mmHg 91%
    23:00 +11°C° 0 mm 8 m/s 756 mmHg 91%

    Mâine, 17 Octombrie, Joi

    Timp Temperatura Precipitaţii Vânt Presiune Umiditate
    00:00 +11°C° 0 mm 7 m/s 756 mmHg 90%
    01:00 +10°C° 0 mm 6 m/s 757 mmHg 90%
    02:00 +10°C° 0 mm 6 m/s 757 mmHg 92%
    03:00 +9°C° 0 mm 5 m/s 757 mmHg 93%
    04:00 +9°C° 0 mm 5 m/s 757 mmHg 94%
    05:00 +9°C° 0 mm 5 m/s 757 mmHg 94%
    06:00 +10°C° 0 mm 5 m/s 758 mmHg 93%
    07:00 +10°C° 0 mm 5 m/s 758 mmHg 92%
    08:00 +12°C° 0 mm 5 m/s 758 mmHg 90%
    09:00 +11°C° 0 mm 6 m/s 758 mmHg 88%
    10:00 +13°C° 0 mm 6 m/s 759 mmHg 86%
    11:00 +13°C° 0.1 mm 6 m/s 759 mmHg 85%
    12:00 +13°C° 0.1 mm 6 m/s 759 mmHg 84%
    13:00 +14°C° 0.1 mm 6 m/s 759 mmHg 84%
    14:00 +13°C° 0 mm 6 m/s 759 mmHg 85%
    15:00 +13°C° 0 mm 5 m/s 759 mmHg 87%
    16:00 +13°C° 0 mm 5 m/s 759 mmHg 89%
    17:00 +13°C° 0 mm 5 m/s 759 mmHg 90%
    18:00 +12°C° 0 mm 5 m/s 760 mmHg 92%
    19:00 +12°C° 0 mm 5 m/s 760 mmHg 94%
    20:00 +12°C° 0 mm 4 m/s 760 mmHg 94%
    21:00 +12°C° 0 mm 4 m/s 760 mmHg 95%
    22:00 +12°C° 0 mm 4 m/s 760 mmHg 95%
    23:00 +12°C° 0 mm 4 m/s 760 mmHg 95%

    Poimâine, 18 Octombrie, Vineri

    Timp Temperatura Precipitaţii Vânt Presiune Umiditate
    00:00 +11°C° 0 mm 4 m/s 760 mmHg 95%
    01:00 +11°C° 0 mm 3 m/s 760 mmHg 95%
    02:00 +11°C° 0 mm 4 m/s 760 mmHg 95%
    03:00 +11°C° 0 mm 4 m/s 760 mmHg 95%
    04:00 +11°C° 0 mm 4 m/s 760 mmHg 95%
    05:00 +10°C° 0 mm 4 m/s 760 mmHg 95%
    06:00 +10°C° 0 mm 4 m/s 760 mmHg 95%
    07:00 +10°C° 0 mm 4 m/s 760 mmHg 94%
    08:00 +12°C° 0 mm 5 m/s 759 mmHg 91%
    09:00 +13°C° 0 mm 5 m/s 759 mmHg 87%
    10:00 +14°C° 0 mm 5 m/s 759 mmHg 83%
    11:00 +14°C° 0 mm 5 m/s 759 mmHg 81%
    12:00 +15°C° 0 mm 5 m/s 759 mmHg 79%
    13:00 +15°C° 0 mm 5 m/s 758 mmHg 78%
    14:00 +15°C° 0 mm 5 m/s 758 mmHg 77%
    15:00 +15°C° 0 mm 5 m/s 758 mmHg 77%
    16:00 +15°C° 0 mm 6 m/s 758 mmHg 77%
    17:00 +15°C° 0 mm 6 m/s 758 mmHg 79%
    18:00 +14°C° 0 mm 6 m/s 758 mmHg 82%
    19:00 +14°C° 0 mm 6 m/s 758 mmHg 85%
    20:00 +14°C° 0.2 mm 5 m/s 758 mmHg 86%
    21:00 +14°C° 0.2 mm 5 m/s 758 mmHg 87%
    22:00 +14°C° 0.2 mm 5 m/s 759 mmHg 87%
    23:00 +13°C° 0 mm 4 m/s 759 mmHg 89%

    19 Octombrie, Sâmbătă

    Timp Temperatura Precipitaţii Vânt Presiune Umiditate
    00:00 +13°C° 0 mm 4 m/s 759 mmHg 91%
    01:00 +12°C° 0 mm 4 m/s 759 mmHg 93%
    02:00 +12°C° 0 mm 3 m/s 759 mmHg 92%
    03:00 +11°C° 0 mm 3 m/s 759 mmHg 92%
    04:00 +12°C° 0 mm 2 m/s 759 mmHg 92%
    05:00 +11°C° 0 mm 3 m/s 759 mmHg 92%
    06:00 +11°C° 0 mm 3 m/s 759 mmHg 92%
    07:00 +11°C° 0 mm 3 m/s 759 mmHg 91%
    08:00 +12°C° 0 mm 3 m/s 759 mmHg 88%
    09:00 +13°C° 0 mm 3 m/s 759 mmHg 85%
    10:00 +14°C° 0 mm 3 m/s 759 mmHg 82%
    11:00 +14°C° 0.2 mm 3 m/s 759 mmHg 85%
    12:00 +14°C° 0.2 mm 2 m/s 759 mmHg 87%
    13:00 +14°C° 0.2 mm 2 m/s 759 mmHg 90%
    14:00 +14°C° 0 mm 2 m/s 759 mmHg 89%
    15:00 +13°C° 0 mm 3 m/s 758 mmHg 88%
    16:00 +13°C° 0 mm 3 m/s 758 mmHg 87%
    17:00 +13°C° 0 mm 4 m/s 758 mmHg 88%
    18:00 +13°C° 0 mm 4 m/s 758 mmHg 89%
    19:00 +13°C° 0 mm 5 m/s 758 mmHg 90%
    20:00 +13°C° 0 mm 5 m/s 758 mmHg 89%
    21:00 +13°C° 0 mm 4 m/s 757 mmHg 88%
    22:00 +13°C° 0 mm 4 m/s 757 mmHg 87%
    23:00 +13°C° 0 mm 4 m/s 757 mmHg 88%

    20 Octombrie, Duminică

    Timp Temperatura Precipitaţii Vânt Presiune Umiditate
    00:00 +12°C° 0 mm 4 m/s 757 mmHg 89%
    01:00 +12°C° 0 mm 4 m/s 757 mmHg 90%
    02:00 +12°C° 0 mm 3 m/s 757 mmHg 90%
    03:00 +12°C° 0 mm 3 m/s 757 mmHg 89%
    04:00 +12°C° 0 mm 3 m/s 757 mmHg 89%
    05:00 +12°C° 0 mm 3 m/s 757 mmHg 90%
    06:00 +13°C° 0 mm 2 m/s 758 mmHg 90%
    07:00 +13°C° 0 mm 2 m/s 758 mmHg 91%
    08:00 +14°C° 0 mm 2 m/s 758 mmHg 88%
    09:00 +13°C° 0 mm 3 m/s 759 mmHg 85%
    10:00 +14°C° 0 mm 3 m/s 759 mmHg 82%
    11:00 +16°C° 0 mm 3 m/s 759 mmHg 81%
    12:00 +15°C° 0 mm 4 m/s 760 mmHg 80%
    13:00 +15°C° 0 mm 4 m/s 760 mmHg 79%
    14:00 +16°C° 0 mm 3 m/s 760 mmHg 81%
    15:00 +15°C° 0 mm 2 m/s 761 mmHg 83%
    16:00 +15°C° 0 mm 2 m/s 761 mmHg 85%
    17:00 +14°C° 0 mm 1 m/s 761 mmHg 87%
    18:00 +13°C° 0 mm 1 m/s 762 mmHg 89%
    19:00 +13°C° 0 mm 1 m/s 762 mmHg 91%
    20:00 +12°C° 0 mm 1 m/s 763 mmHg 92%
    21:00 +12°C° 0 mm 1 m/s 763 mmHg 92%
    22:00 +12°C° 0 mm 1 m/s 764 mmHg 93%
    23:00 +12°C° 0 mm 1 m/s 764 mmHg 93%

    21 Octombrie, Luni

    Timp Temperatura Precipitaţii Vânt Presiune Umiditate
    00:00 +11°C° 0 mm 0 m/s 764 mmHg 93%
    01:00 +10°C° 0 mm 0 m/s 764 mmHg 93%
    02:00 +10°C° 0 mm 0 m/s 764 mmHg 93%
    03:00 +11°C° 0 mm 1 m/s 765 mmHg 93%
    04:00 +11°C° 0 mm 1 m/s 765 mmHg 93%
    05:00 +11°C° 0 mm 1 m/s 765 mmHg 93%
    06:00 +11°C° 0 mm 1 m/s 765 mmHg 93%
    07:00 +11°C° 0 mm 1 m/s 766 mmHg 93%
    08:00 +12°C° 0 mm 2 m/s 766 mmHg 89%
    09:00 +13°C° 0 mm 2 m/s 766 mmHg 85%
    10:00 +14°C° 0 mm 3 m/s 767 mmHg 80%
    11:00 +14°C° 0 mm 3 m/s 767 mmHg 77%
    12:00 +15°C° 0 mm 4 m/s 767 mmHg 75%
    13:00 +17°C° 0 mm 4 m/s 767 mmHg 72%
    14:00 +15°C° 0 mm 5 m/s 767 mmHg 74%
    15:00 +14°C° 0 mm 5 m/s 767 mmHg 77%
    16:00 +14°C° 0 mm 5 m/s 766 mmHg 80%
    17:00 +13°C° 0 mm 6 m/s 767 mmHg 80%
    18:00 +11°C° 0 mm 6 m/s 767 mmHg 81%
    19:00 +11°C° 0 mm 6 m/s 767 mmHg 81%
    20:00 +11°C° 0 mm 6 m/s 767 mmHg 81%
    21:00 +11°C° 0 mm 6 m/s 767 mmHg 81%
    22:00 +10°C° 0 mm 6 m/s 768 mmHg 81%
    23:00 +10°C° 0 mm 6 m/s 768 mmHg 81%
    Arată mai mult